Location: Greenwich
(51.4790°N, 0.0090°E)
Time: 17:29:04
(UTC+01:00)

Transit 4A - All Passes

Search period start: 23 June 2025 00:00
Search period end: 03 July 2025 00:00
Orbit: 867 x 974 km, 66.8° (Epoch: 22 June)

Date Brightness Start Highest point End Pass type
(mag) Time Alt. Az. Time Alt. Az. Time Alt. Az.
23 Jun - 10:07:40 10° SE 10:11:14 16° ESE 10:14:44 10° ENE daylight
23 Jun - 11:50:20 10° SSW 11:56:35 72° ESE 12:02:41 10° NE daylight
23 Jun - 13:37:42 10° W 13:43:24 36° NW 13:48:59 10° NNE daylight
23 Jun - 15:27:10 10° NW 15:31:31 20° N 15:35:48 10° NE daylight
23 Jun - 17:15:22 10° NNW 17:20:04 22° NNE 17:24:39 10° ENE daylight
23 Jun - 19:01:52 10° NW 19:07:45 53° NE 19:13:28 10° ESE daylight
23 Jun - 20:48:29 10° NW 20:53:56 39° WSW 20:59:16 10° S daylight
24 Jun - 10:15:03 10° SSE 10:19:44 22° ESE 10:24:20 10° ENE daylight
24 Jun - 11:59:06 10° SW 12:05:24 87° NW 12:11:33 10° NE daylight
24 Jun - 13:47:07 10° W 13:52:31 30° NNW 13:57:49 10° NNE daylight
24 Jun - 15:36:37 10° NW 15:40:50 19° N 15:44:58 10° NE daylight
24 Jun - 17:24:19 10° NNW 17:29:17 25° NNE 17:34:07 10° E daylight
24 Jun - 19:10:42 10° NW 19:16:40 69° NE 19:22:30 10° SE daylight
24 Jun - 20:57:37 10° NW 21:02:32 28° WSW 21:07:22 10° SSW daylight
25 Jun - 10:22:55 10° S 10:28:18 31° ESE 10:33:35 10° NE daylight
25 Jun - 12:08:02 10° SW 12:14:16 68° NW 12:20:23 10° NE daylight
25 Jun - 13:56:36 10° W 14:01:42 26° NNW 14:06:41 10° NNE daylight
25 Jun - 15:45:57 10° NW 15:50:09 19° N 15:54:16 10° NE daylight
25 Jun - 17:33:13 10° NNW 17:38:27 30° NNE 17:43:34 10° E daylight
25 Jun - 19:19:32 10° NW 19:25:33 90° SW 19:31:24 10° SE daylight
25 Jun - 21:06:57 10° WNW 21:11:04 20° WSW 21:15:08 10° SSW daylight
26 Jun - 10:31:06 10° S 10:36:56 42° ESE 10:42:40 10° NE daylight
26 Jun - 12:17:07 10° WSW 12:23:13 53° NW 12:29:11 10° NNE daylight
26 Jun - 14:06:09 10° WNW 14:10:55 23° NNW 14:15:35 10° NNE daylight
26 Jun - 15:55:10 10° NW 15:59:28 19° N 16:03:40 10° NE daylight
26 Jun - 17:42:04 10° NNW 17:47:34 36° NE 17:52:56 10° E daylight
26 Jun - 19:28:25 10° NW 19:34:21 68° WSW 19:40:06 10° SSE daylight
26 Jun - 21:16:47 10° WNW 21:19:32 14° WSW 21:22:16 10° SW daylight
27 Jun - 08:58:27 10° ESE 09:00:31 12° E 09:02:34 10° E daylight
27 Jun - 10:39:31 10° SSW 10:45:38 58° ESE 10:51:38 10° NE daylight
27 Jun - 12:26:21 10° WSW 12:32:14 42° NW 12:37:59 10° NNE daylight
27 Jun - 14:15:41 10° WNW 14:20:11 20° NNW 14:24:35 10° NE daylight
27 Jun - 16:04:16 10° NW 16:08:44 21° NNE 16:13:08 10° ENE daylight
27 Jun - 17:50:53 10° NNW 17:56:37 44° NE 18:02:12 10° ESE daylight
27 Jun - 19:37:21 10° NW 19:43:03 49° WSW 19:48:38 10° S daylight
28 Jun - 09:05:05 10° SE 09:08:58 17° ESE 09:12:48 10° ENE daylight
28 Jun - 10:48:09 10° SSW 10:54:24 77° SE 11:00:32 10° NE daylight
28 Jun - 12:35:42 10° W 12:41:18 34° NNW 12:46:48 10° NNE daylight
28 Jun - 14:25:11 10° NW 14:29:29 19° N 14:33:41 10° NE daylight
28 Jun - 16:13:16 10° NNW 16:18:00 23° NNE 16:22:38 10° ENE daylight
28 Jun - 17:59:42 10° NW 18:05:36 57° NE 18:11:21 10° ESE daylight
28 Jun - 19:46:23 10° NW 19:51:43 35° WSW 19:56:55 10° S daylight
29 Jun - 09:12:37 10° SSE 09:17:30 24° ESE 09:22:17 10° ENE daylight
29 Jun - 10:56:58 10° SW 11:03:15 82° NW 11:09:22 10° NE daylight
29 Jun - 12:45:09 10° W 12:50:26 29° NNW 12:55:38 10° NNE daylight
29 Jun - 14:34:36 10° NW 14:38:47 19° N 14:42:54 10° NE daylight
29 Jun - 16:22:12 10° NNW 16:27:12 26° NNE 16:32:07 10° E daylight
29 Jun - 18:08:32 10° NW 18:14:31 74° NE 18:20:21 10° SE daylight
29 Jun - 19:55:33 10° NW 20:00:17 25° WSW 20:04:56 10° SSW daylight
30 Jun - 09:20:35 10° S 09:26:05 33° ESE 09:31:29 10° NE daylight
30 Jun - 11:05:57 10° SW 11:12:08 63° NW 11:18:11 10° NE daylight
30 Jun - 12:54:39 10° WNW 12:59:37 25° NNW 13:04:30 10° NNE daylight
30 Jun - 14:43:54 10° NW 14:48:06 19° N 14:52:13 10° NE daylight
30 Jun - 16:31:04 10° NNW 16:36:22 31° NNE 16:41:32 10° E daylight
30 Jun - 18:17:23 10° NW 18:23:22 84° SW 18:29:12 10° SSE daylight
30 Jun - 20:05:00 10° WNW 20:08:48 18° WSW 20:12:35 10° SW daylight
01 Jul - 09:28:49 10° S 09:34:44 46° ESE 09:40:32 10° NE daylight
01 Jul - 11:15:04 10° WSW 11:21:06 49° NW 11:27:00 10° NNE daylight
01 Jul - 13:04:11 10° WNW 13:08:51 22° NNW 13:13:27 10° NNE daylight
01 Jul - 14:53:06 10° NW 14:57:24 20° N 15:01:38 10° NE daylight
01 Jul - 16:39:54 10° NNW 16:45:28 38° NE 16:50:53 10° ESE daylight
01 Jul - 18:26:16 10° NW 18:32:08 63° WSW 18:37:52 10° SSE daylight
01 Jul - 20:15:04 10° WNW 20:17:15 12° W 20:19:25 10° WSW daylight
02 Jul - 07:55:35 10° SE 07:58:15 13° ESE 08:00:54 10° ENE daylight
02 Jul - 09:37:19 10° SSW 09:43:27 62° ESE 09:49:28 10° NE daylight
02 Jul - 11:24:19 10° WSW 11:30:07 39° NW 11:35:48 10° NNE daylight
02 Jul - 13:13:43 10° WNW 13:18:08 20° NNW 13:22:28 10° NE daylight
02 Jul - 15:02:10 10° NNW 15:06:41 21° NNE 15:11:07 10° ENE daylight
02 Jul - 16:48:43 10° NNW 16:54:30 47° NE 17:00:07 10° ESE daylight
02 Jul - 18:35:14 10° NW 18:40:50 45° WSW 18:46:20 10° S daylight
